CAPE
0 0 0 0 0 0 0 0 0 0 0 0 0 0 0 0 0 0 6 0 27 110 150 252 190 1 0 0 0 0 0 0 88 32 332 661 514 927 1123 1141 905 1645 1708 1653
0 0 0 0 0 0 0 0 0 0 0 0 0 0 0 0 0 0 0 0 0 91 149 298 424 280 117 18 0 0 1 18 157 272 282 469 786 775 973 1045 1187 1217 2033 1902
0 0 0 0 0 0 0 0 0 0 0 0 0 0 0 0 0 0 0 0 0 0 74 383 552 546 422 317 116 35 5 113 64 373 476 568 620 747 790 879 1053 1500 1539 2082
0 0 0 0 0 0 0 0 0 0 0 0 0 0 0 0 0 0 0 0 0 23 4 298 661 784 688 685 566 233 175 131 337 276 390 377 546 618 536 863 771 1069 1708 1993
0 0 0 0 0 0 0 0 0 0 0 0 0 0 0 0 0 0 0 0 0 0 0 0 124 823 929 869 772 819 440 269 259 450 244 405 382 523 613 485 951 999 1855 1838
0 0 0 0 0 0 0 0 0 0 0 0 0 0 0 1 0 0 3 0 2 7 59 178 374 669 743 929 1084 1318 1430 907 641 515 641 65 203 454 521 507 575 1204 2031 2329
0 0 0 0 0 0 0 0 0 0 0 0 0 0 0 3 0 0 0 49 173 187 301 521 697 727 844 901 999 1186 1512 2275 1795 1189 987 931 341 94 437 469 408 964 1825 2742
0 2 0 0 0 0 0 0 0 0 0 0 0 0 3 3 0 39 251 295 259 256 292 342 593 568 759 857 832 754 927 1430 1762 2763 2382 1937 1745 950 357 707 280 758 1046 2361
0 1 0 0 0 0 0 0 0 0 0 0 0 1 78 1 8 147 269 222 127 32 0 0 0 0 0 28 112 250 337 568 723 1386 1612 2559 2881 2536 1673 984 1164 422 740 1915
0 0 0 0 0 0 0 0 0 0 0 0 4 11 9 56 110 94 136 91 27 5 0 0 0 0 0 0 0 0 0 0 33 138 210 551 1568 2853 3083 2866 2105 1539 1544 896
0 0 0 0 0 0 0 0 0 0 0 0 0 112 474 464 241 110 17 0 0 0 0 0 0 0 0 0 0 0 0 0 0 0 0 1 352 1272 1586 2423 2957 2734 2326 2237
0 0 0 0 0 0 0 0 0 0 0 0 0 1 250 268 182 92 3 0 0 0 0 0 0 0 0 0 0 0 0 0 0 0 0 0 0 67 354 1597 1140 1834 2180 2358
0 0 0 0 0 0 0 0 0 0 0 0 0 0 161 96 42 0 0 0 0 0 0 0 0 0 0 0 0 0 0 0 0 0 0 0 0 0 0 259 1528 1947 1729 1914
0 0 0 0 0 0 0 4 2 0 0 0 0 10 13 133 68 22 0 0 0 0 0 0 0 0 0 0 0 0 0 0 0 0 0 0 0 0 0 26 32 1083 1779 2006
0 0 0 0 0 0 0 0 0 0 0 0 0 0 0 8 0 0 1 0 0 0 0 0 0 0 0 0 0 0 0 0 0 0 0 0 0 0 0 5 6 8 462 1746
0 0 0 0 0 0 0 0 0 0 0 0 0 0 0 0 0 0 0 0 0 0 0 0 0 0 0 0 0 0 0 0 0 0 0 0 0 0 0 0 0 1 16 218
0 0 0 0 0 0 0 0 0 0 0 0 0 0 0 0 0 0 0 0 0 0 0 0 0 0 0 0 0 0 0 0 0 0 0 0 0 0 0 1 0 0 0 187
0 0 0 0 0 0 0 0 0 0 0 0 0 0 0 0 0 0 0 0 0 0 0 0 0 0 0 0 1 4 6 4 0 0 0 3 4 0 0 3 8 0 0 66
0 0 0 0 0 0 0 0 0 0 0 0 0 0 0 0 0 0 0 0 0 0 0 0 0 2 2 6 2 0 0 0 0 0 17 11 22 35 42 30 24 10 2 0
0 0 0 0 0 0 0 0 0 0 0 0 0 0 0 0 0 0 0 0 0 0 0 0 2 1 9 0 10 2 0 1 0 2 0 4 8 58 60 91 79 47 63 27
0 0 0 0 0 0 0 0 0 0 0 0 0 0 0 0 0 0 0 2 4 6 2 5 1 1 1 8 14 6 5 6 7 17 1 0 7 3 31 67 57 44 48 10
0 1 3 0 0 0 0 0 0 0 0 0 0 0 0 0 0 2 1 0 0 1 2 2 5 6 8 20 13 14 5 4 7 0 0 1 3 3 17 17 21 69 12 143
0 0 0 0 0 0 0 0 0 0 0 0 0 0 0 3 2 3 3 1 0 2 8 0 14 22 17 15 15 9 0 0 0 4 7 6 0 1 21 45 97 59 350 285
0 0 0 0 0 0 0 0 0 0 0 0 0 2 7 0 2 7 5 0 1 4 9 16 21 10 10 13 6 17 10 16 8 7 6 0 0 0 3 40 190 327 444 390
0 0 0 0 0 0 0 0 0 0 0 0 3 7 3 5 5 1 5 6 7 17 16 20 35 21 8 8 2 0 1 9 10 2 0 56 69 15 18 86 150 304 237 332
0 0 0 8 1 0 2 0 0 0 0 1 0 0 6 3 1 2 4 11 21 2 12 20 8 10 6 0 1 1 3 0 6 10 8 44 72 56 99 143 159 259 49 60
CIN
0 0 0 0 0 0 0 0 0 0 0 0 0 0 0 0 0 0 -4 0 -2 -13 -27 -79 -111 -11 0 0 0 0 0 0 -401 -441 -324 -236 -245 -133 -90 -68 -64 -10 -41 -28
0 0 0 0 0 0 0 0 0 0 0 0 0 0 0 0 0 0 0 0 -5 -6 -14 -44 -103 -137 -219 -191 0 0 -91 -256 -315 -407 -386 -304 -205 -161 -101 -82 -61 -26 -13 -22
0 0 0 0 0 0 0 0 0 0 0 0 0 0 0 0 0 0 0 0 0 0 -8 -20 -59 -90 -141 -229 -364 -443 -249 -412 -260 -354 -338 -315 -265 -215 -181 -150 -106 -50 -30 -18
0 0 0 0 0 0 0 0 0 0 0 0 0 0 0 0 0 0 0 0 0 -8 -9 -17 -25 -46 -69 -123 -221 -370 -395 -408 -376 -397 -356 -364 -310 -262 -246 -171 -149 -131 -61 -45
0 0 0 0 0 0 0 0 0 0 0 0 0 0 0 0 0 0 0 -1 0 0 0 0 -18 -24 -42 -42 -43 -175 -342 -424 -381 -371 -414 -358 -366 -319 -238 -214 -109 -111 -78 -63
0 0 0 0 0 0 0 0 0 0 0 0 0 0 0 -12 0 0 -18 0 -29 -111 -84 -69 -66 -74 -110 -102 -78 -28 -161 -351 -390 -346 -393 -443 -425 -368 -274 -269 -193 -67 -28 -51
0 0 0 0 0 0 0 0 0 0 0 0 0 0 0 -24 0 -5 0 -91 -120 -67 -72 -95 -128 -129 -145 -175 -186 -132 -86 -128 -214 -293 -311 -340 -365 -420 -344 -278 -254 -91 -24 -34
-1 -5 0 0 0 0 0 0 0 0 -2 -6 0 0 -12 -36 -4 -70 -83 -96 -106 -93 -90 -89 -163 -139 -146 -173 -220 -229 -192 -127 -77 -38 -111 -156 -211 -271 -339 -285 -293 -146 -88 -14
0 -1 0 0 0 0 0 0 0 0 0 0 0 -2 -64 -41 -49 -91 -127 -141 -156 -148 0 0 0 0 0 -202 -280 -292 -289 -220 -193 -123 -82 -19 -21 -78 -181 -229 -158 -276 -113 -9
0 0 0 0 0 0 0 0 0 0 0 0 -6 -70 -30 -31 -49 -86 -127 -175 -218 -138 0 0 0 0 0 0 0 0 0 0 -198 -351 -316 -237 -88 -14 -11 -24 -79 -95 -76 -111
0 0 0 0 0 0 0 0 0 0 0 0 0 -4 -8 -13 -27 -83 -128 0 0 0 0 0 0 0 0 0 0 0 0 0 0 0 0 -81 -262 -118 -54 -14 -7 -10 -21 -25
0 0 0 0 0 0 0 0 0 0 0 0 0 -1 -43 -80 -85 -77 -122 0 0 0 0 0 0 0 0 0 0 0 0 0 0 0 0 0 0 -326 -248 -42 -70 -21 -24 -20
0 0 0 0 0 0 0 0 0 0 0 0 0 0 -40 -47 -51 -3 -24 0 0 0 0 0 0 0 0 0 0 0 0 0 0 0 0 0 0 0 0 -222 -28 -3 -12 -30
0 0 0 0 0 0 0 -3 -1 -1 0 0 0 -3 -10 -29 -23 -17 0 0 0 0 0 0 0 0 0 0 0 0 0 0 0 0 0 0 0 0 0 -196 -282 -62 -5 -4
0 0 0 0 0 0 0 0 0 0 0 0 0 0 0 -88 0 0 -3 0 0 0 0 0 0 0 0 0 0 0 0 0 0 0 0 0 0 0 0 -167 -278 -308 -116 -3
0 0 0 0 0 0 0 0 0 0 0 0 0 0 0 0 0 0 0 0 0 0 0 0 0 0 0 0 0 0 0 0 0 0 0 0 0 0 0 0 0 -297 -250 -142
0 0 0 0 0 0 0 0 0 0 0 0 0 0 0 0 0 0 0 0 0 0 0 0 0 0 0 0 0 0 0 0 0 0 0 0 0 0 0 -2 0 0 0 -71
0 0 0 0 0 0 0 0 0 0 0 0 0 0 0 0 0 0 0 0 0 0 0 0 0 0 0 0 -1 0 -1 -1 -1 0 0 -1 -1 0 0 -8 -9 0 0 -46
0 0 0 0 0 0 0 0 0 0 0 0 0 0 0 0 0 0 0 0 0 0 0 0 -2 -3 -4 -3 -7 0 0 0 0 -1 0 0 -1 -2 -2 -5 -7 -9 -8 0
0 0 0 0 0 0 0 0 0 0 0 0 0 0 0 0 0 0 0 0 -1 0 0 -1 -3 -5 -5 0 -3 -4 -1 0 0 -1 0 -39 -46 -4 -3 -4 -124 -7 -13 -7
0 0 0 0 0 0 0 0 0 0 0 0 0 0 0 0 0 0 -1 -1 -1 -1 -2 -4 -5 -1 -4 -3 -2 -2 0 -1 -2 0 -1 0 -74 -71 -17 -4 -10 -60 -8 -14
0 -3 -3 0 0 -2 0 0 0 0 0 0 0 0 0 0 0 -2 -2 0 0 -1 -1 -1 -1 -5 -4 -2 -2 -1 -1 0 -1 0 0 -12 -56 -92 -46 -27 -10 -23 -17 -8
0 0 -1 0 0 0 0 0 0 0 0 0 0 0 0 -4 -2 -1 -1 -1 0 -3 -1 0 -1 -1 -1 -3 -3 -2 0 -1 0 -1 -1 -1 -1 -9 -36 -93 -27 -48 -4 -3
-9 0 0 0 0 0 0 0 0 0 0 0 0 -2 -2 -1 -2 -2 -2 -4 -12 -2 -1 -6 -2 -11 -6 -3 -3 0 -1 -1 -4 -2 -3 0 0 0 -25 -43 -17 -6 -5 -3
0 0 0 0 0 0 0 0 0 0 0 0 -6 -1 -7 -4 -3 -1 -4 -8 -10 -1 -1 -6 -1 -1 -2 -1 -1 0 0 -1 -1 -3 0 -1 -1 -2 -11 -25 -12 -7 -11 -7
0 0 0 -9 -5 0 -1 0 0 -1 -1 -3 -3 -3 -1 -3 -3 -1 0 0 -1 -8 -17 -2 -1 -1 -1 -1 0 0 0 0 -1 0 0 0 -2 -11 -8 -3 -13 -26 -45 -44
Wind_Speed
3 6 4 5 6 15 35 31 28 26 22 23 17 23 32 32 31 31 6 3 1 3 6 9 10 11 11 12 12 15 14 18 12 13 13 12 15 13 12 15 12 10 12 14
4 2 25 15 22 20 24 25 24 30 30 31 34 32 24 28 33 28 28 19 12 3 2 8 9 8 10 11 10 11 12 12 12 9 10 10 7 9 8 9 10 12 10 10
1 13 8 21 20 19 22 22 25 23 27 28 27 31 32 13 22 7 31 13 24 28 14 5 8 7 7 7 10 9 10 10 13 7 6 7 7 8 8 10 11 8 9 7
10 21 15 16 16 17 13 17 14 23 26 22 25 34 15 5 3 4 5 13 5 14 18 3 3 6 6 6 6 10 10 10 11 12 9 11 10 11 12 10 11 12 11 11
7 7 16 14 12 10 11 19 20 20 23 28 28 21 24 16 2 6 3 11 13 16 16 17 20 2 3 5 7 9 12 12 10 14 17 15 16 16 16 15 14 14 13 14
24 18 16 13 6 4 19 17 14 9 1 7 7 1 22 15 6 6 11 11 14 15 16 17 19 21 20 19 22 19 12 15 15 13 13 19 21 20 20 19 19 19 17 17
1 4 7 10 12 5 7 7 12 7 3 5 13 8 13 15 8 10 10 13 17 18 18 19 21 22 21 21 22 22 23 15 19 18 19 18 20 23 24 24 23 23 22 21
8 5 1 3 10 9 1 4 9 25 27 26 8 14 12 8 7 7 9 11 15 18 18 19 19 21 20 20 21 23 23 23 23 20 23 24 24 25 30 30 27 26 26 25
19 9 9 8 12 9 12 2 5 29 31 31 27 27 27 10 11 12 12 14 15 16 16 18 19 21 22 23 23 24 25 26 26 28 29 27 28 25 24 25 31 30 33 31
16 16 9 7 12 16 17 21 22 17 20 23 23 21 11 10 8 10 13 15 16 18 18 20 21 22 23 24 25 26 27 29 28 29 31 32 34 29 30 29 29 29 32 34
22 18 22 15 16 15 11 8 13 16 20 26 26 18 12 12 10 12 14 16 18 19 21 23 24 25 26 26 28 30 31 32 31 32 35 36 35 34 31 29 32 33 33 34
16 17 21 23 29 27 22 24 25 25 23 24 28 26 14 13 14 14 17 19 20 21 22 24 25 27 29 30 32 33 34 35 36 36 37 38 38 38 38 37 33 32 33 33
17 18 22 24 21 22 20 21 22 21 20 21 27 28 13 15 13 17 21 23 24 25 27 28 28 30 31 33 35 37 38 38 38 38 40 41 41 41 40 40 41 39 37 36
21 22 24 27 32 28 23 24 17 17 19 21 21 26 23 19 17 20 22 26 29 31 33 33 32 32 34 37 40 42 42 41 42 41 42 42 44 45 44 42 43 43 42 41
20 25 26 29 32 33 31 31 31 31 30 30 31 33 32 23 24 24 25 29 33 36 38 37 34 35 39 43 44 44 44 45 44 45 46 46 44 45 46 46 44 45 44 44
15 24 26 31 31 33 35 31 28 27 26 28 27 27 23 23 26 30 33 37 40 39 35 38 41 43 44 46 47 47 44 45 46 47 46 46 47 47 46 47 48 48 48 47
20 23 26 31 30 33 34 31 29 28 24 24 23 20 22 26 30 33 38 42 36 38 40 42 43 44 45 45 44 45 46 46 45 46 46 47 47 46 47 46 47 49 50 49
27 27 26 32 32 34 33 22 21 22 24 26 22 23 26 30 33 37 36 35 39 40 41 41 41 42 42 43 44 44 44 44 45 46 47 46 46 47 46 44 45 48 49 50
18 23 29 29 30 30 31 22 20 20 22 24 25 27 31 35 37 34 34 40 42 42 41 41 42 43 43 42 44 47 48 48 48 49 48 42 41 43 43 45 45 45 47 49
19 20 24 27 30 32 20 17 19 19 26 25 27 29 33 36 39 38 42 42 41 41 41 41 41 43 41 44 43 43 40 41 44 43 44 46 48 46 42 43 43 44 44 46
20 21 24 26 29 28 21 21 22 28 28 26 28 31 34 36 37 40 40 40 40 41 43 43 43 41 41 39 41 42 43 42 41 43 43 43 44 46 47 44 44 43 43 45
26 24 25 25 27 29 24 21 25 23 24 28 30 34 37 37 37 38 40 40 41 41 42 41 38 37 36 40 41 42 41 40 38 36 38 37 40 39 41 45 46 46 46 43
26 24 24 25 23 18 18 18 21 23 27 30 33 35 35 34 35 36 37 38 40 42 41 40 38 40 41 42 41 43 42 36 36 33 35 37 39 37 36 37 40 45 43 42
18 18 23 26 16 19 21 23 22 25 29 30 31 32 31 32 33 32 37 39 39 36 38 38 40 43 43 44 44 40 41 37 34 36 38 38 40 39 37 36 36 38 40 41
21 19 22 22 24 23 20 22 26 29 30 29 28 29 29 29 32 35 35 35 35 35 35 36 38 42 44 48 47 45 40 38 34 35 32 29 32 33 34 31 36 37 40 38
24 25 22 22 20 21 23 26 28 27 26 26 26 29 31 31 33 34 34 34 33 35 34 36 40 43 46 47 44 46 41 38 35 34 32 27 24 26 23 26 37 39 38 34
Wind_Direction
5 313 304 306 177 198 254 289 288 289 281 293 310 298 271 269 267 278 326 21 259 182 163 156 157 154 156 160 157 159 156 163 147 156 158 154 167 165 166 171 163 154 158 163
359 73 269 294 287 302 296 297 293 279 276 277 275 283 291 284 251 279 280 312 260 307 172 175 164 173 171 173 178 177 174 169 168 170 176 180 178 181 182 183 181 177 168 164
173 313 324 295 297 301 297 299 293 297 287 286 294 278 263 211 216 300 250 320 296 278 301 174 182 179 205 192 195 197 198 196 191 195 203 206 207 206 206 205 203 205 198 199
307 287 312 313 304 304 321 309 308 299 295 307 293 297 310 225 271 292 216 324 139 307 276 114 198 199 195 240 237 221 218 219 223 221 226 223 235 229 229 236 231 224 214 219
312 322 308 313 316 330 322 317 314 311 304 298 296 312 305 334 156 358 35 338 347 340 348 354 345 18 200 264 274 238 229 223 228 226 237 266 247 271 276 256 269 243 237 224
268 306 310 314 345 340 304 324 336 341 152 194 191 101 249 326 32 12 17 12 359 4 352 340 338 348 344 337 318 302 248 226 226 237 245 242 247 260 271 259 262 269 259 242
295 304 318 330 319 4 357 354 343 0 86 155 301 149 165 334 1 20 29 27 15 1 351 346 337 336 332 331 327 325 325 283 280 271 270 265 260 265 261 262 261 270 265 256
336 318 120 355 332 332 63 26 335 299 280 291 14 316 337 7 352 347 2 5 355 348 354 357 352 347 349 345 338 329 326 324 322 298 285 285 284 282 279 277 268 269 261 259
305 346 23 8 339 343 334 303 338 286 279 278 285 286 328 33 29 24 15 4 359 357 352 348 352 344 342 337 337 335 329 326 324 322 311 301 288 284 281 280 281 273 274 273
294 305 342 0 340 315 307 302 304 314 308 302 299 321 346 350 356 2 356 352 350 348 346 344 345 344 342 338 336 332 326 323 325 323 320 318 311 297 286 287 285 283 281 275
279 296 288 317 322 324 329 337 332 322 309 301 304 334 348 351 354 346 344 345 344 342 341 337 335 335 334 332 331 329 324 320 322 320 315 312 314 316 304 295 291 287 285 283
296 297 292 294 289 303 304 302 302 300 303 305 302 303 348 342 335 338 334 335 338 338 337 334 333 329 327 325 323 321 320 318 316 316 312 311 310 310 308 300 295 297 293 287
303 295 296 299 306 303 303 309 307 308 309 306 299 299 345 343 339 330 327 330 332 332 329 327 325 324 324 324 322 320 317 315 315 312 310 308 308 308 306 305 301 295 293 294
296 292 292 290 284 306 305 304 313 313 311 314 309 309 311 341 335 331 330 328 328 328 326 325 323 319 322 322 320 317 315 314 312 311 308 306 304 302 304 303 302 301 296 292
298 292 293 291 288 290 297 296 297 298 300 299 302 301 305 318 323 330 332 330 326 323 321 322 328 328 323 318 317 316 314 312 311 310 307 304 303 303 300 300 301 300 299 295
306 298 298 292 293 292 292 297 298 299 302 301 303 306 320 323 324 323 325 324 321 319 326 326 322 320 321 319 317 316 315 314 313 310 308 306 304 302 300 299 298 298 296 295
302 302 302 295 299 298 296 299 298 302 300 310 308 322 330 327 325 322 322 322 327 327 325 322 322 321 321 321 319 318 316 316 314 312 310 309 306 304 302 300 299 297 295 292
294 296 299 297 300 296 302 309 308 306 316 321 318 318 325 323 323 323 325 328 327 326 326 326 324 324 324 323 322 321 321 319 316 313 311 309 308 305 304 303 301 299 295 292
294 299 297 293 296 300 303 318 314 313 317 327 321 322 321 322 321 321 328 326 325 325 326 327 327 326 326 327 326 323 320 318 317 314 315 315 313 311 309 305 303 302 297 292
301 298 294 296 296 299 313 322 328 326 307 328 328 323 323 324 318 320 324 323 324 325 327 328 328 326 328 327 329 329 330 328 324 321 316 313 312 311 306 306 307 305 300 295
295 296 294 295 294 298 315 319 321 303 309 327 328 327 325 322 322 323 323 323 324 325 325 325 326 328 329 332 331 331 329 326 326 324 321 317 310 306 308 306 304 304 303 298
294 292 293 295 295 291 321 316 311 320 326 326 327 326 323 324 324 324 323 323 325 327 328 329 333 335 336 335 333 333 333 331 330 329 327 323 320 311 308 305 303 301 299 300
285 297 300 306 310 327 332 330 331 330 325 326 324 325 326 326 326 327 329 330 329 326 326 328 333 335 335 336 336 335 335 336 333 330 329 328 322 318 310 309 307 302 299 298
304 310 300 305 320 324 326 328 329 332 328 327 328 328 329 329 330 332 332 330 329 331 329 333 335 334 337 338 338 339 340 336 334 331 329 325 322 318 312 306 307 306 302 298
314 315 308 311 309 315 324 330 329 327 328 328 331 330 332 333 333 333 335 333 331 333 337 340 342 341 340 340 343 343 345 345 342 338 335 332 330 326 319 313 307 305 304 300
301 306 306 313 322 318 319 325 327 329 331 332 332 331 330 333 334 332 335 330 336 337 342 343 341 341 343 346 350 349 352 350 350 346 345 345 342 339 333 326 315 309 309 305